Time,TemperatureF,DewpointF,PressureIn,WindDirection,WindDirectionDegrees,WindSpeedMPH,WindSpeedGustMPH,Humidity,HourlyPrecipIn,Conditions,Clouds,dailyrainin,SoftwareType,DateUTC
2013-06-05 00:06:00,76.8,65.0,29.81,SSE,162,4.0,10.0,67,0.00,,,0.00,weatherlink.com 1.10,2013-06-05 05:06:00,
2013-06-05 00:21:00,76.5,65.0,29.82,SE,131,5.0,8.0,68,0.00,,,0.00,weatherlink.com 1.10,2013-06-05 05:21:00,
2013-06-05 00:36:00,75.8,66.0,29.82,SSE,159,2.0,4.0,71,0.00,,,0.00,weatherlink.com 1.10,2013-06-05 05:36:00,
2013-06-05 00:51:00,75.2,66.0,29.87,NNW,345,5.0,11.0,72,0.00,,,0.00,weatherlink.com 1.10,2013-06-05 05:51:00,
2013-06-05 01:06:00,75.5,65.0,29.86,SE,128,1.0,7.0,71,0.00,,,0.00,weatherlink.com 1.10,2013-06-05 06:06:00,
2013-06-05 01:21:00,74.2,65.0,29.85,SE,128,2.0,3.0,74,0.00,,,0.00,weatherlink.com 1.10,2013-06-05 06:21:00,
2013-06-05 01:36:00,74.5,67.0,29.83,SSE,166,2.0,8.0,76,0.00,,,0.00,weatherlink.com 1.10,2013-06-05 06:36:00,
2013-06-05 01:51:00,74.3,67.0,29.83,SSE,147,2.0,4.0,77,0.00,,,0.00,weatherlink.com 1.10,2013-06-05 06:51:00,
2013-06-05 02:06:00,73.5,66.0,29.82,South,174,2.0,6.0,78,0.00,,,0.00,weatherlink.com 1.10,2013-06-05 07:06:00,
2013-06-05 02:21:00,73.1,66.0,29.81,South,174,5.0,6.0,79,0.00,,,0.00,weatherlink.com 1.10,2013-06-05 07:21:00,
2013-06-05 02:36:00,73.1,67.0,29.80,South,187,3.0,10.0,80,0.00,,,0.00,weatherlink.com 1.10,2013-06-05 07:36:00,
2013-06-05 02:52:00,73.4,67.0,29.79,SSE,147,7.0,14.0,79,0.00,,,0.00,weatherlink.com 1.10,2013-06-05 07:52:00,
2013-06-05 03:07:00,73.7,65.0,29.78,SSW,192,8.0,15.0,75,0.00,,,0.00,weatherlink.com 1.10,2013-06-05 08:07:00,
2013-06-05 03:22:00,73.3,65.0,29.78,South,181,7.0,15.0,74,0.00,,,0.00,weatherlink.com 1.10,2013-06-05 08:22:00,
2013-06-05 03:37:00,73.0,64.0,29.76,SW,221,7.0,15.0,74,0.00,,,0.00,weatherlink.com 1.10,2013-06-05 08:37:00,
2013-06-05 03:52:00,72.7,65.0,29.76,South,174,8.0,15.0,76,0.00,,,0.00,weatherlink.com 1.10,2013-06-05 08:52:00,
2013-06-05 04:07:00,72.4,65.0,29.77,South,176,3.0,12.0,78,0.00,,,0.00,weatherlink.com 1.10,2013-06-05 09:07:00,
2013-06-05 04:22:00,72.0,65.0,29.78,SSW,202,7.0,9.0,79,0.00,,,0.00,weatherlink.com 1.10,2013-06-05 09:22:00,
2013-06-05 04:37:00,71.6,65.0,29.79,SSW,199,3.0,10.0,80,0.00,,,0.00,weatherlink.com 1.10,2013-06-05 09:37:00,
2013-06-05 04:52:00,71.4,65.0,29.78,SSW,194,3.0,9.0,81,0.00,,,0.00,weatherlink.com 1.10,2013-06-05 09:52:00,
2013-06-05 05:07:00,71.1,66.0,29.78,South,183,5.0,10.0,83,0.00,,,0.00,weatherlink.com 1.10,2013-06-05 10:07:00,
2013-06-05 05:22:00,71.0,66.0,29.79,South,172,5.0,9.0,85,0.00,,,0.00,weatherlink.com 1.10,2013-06-05 10:22:00,
2013-06-05 05:37:00,70.8,67.0,29.79,SSW,195,6.0,9.0,86,0.00,,,0.00,weatherlink.com 1.10,2013-06-05 10:37:00,
2013-06-05 05:52:00,70.4,66.0,29.78,South,183,6.0,9.0,87,0.00,,,0.00,weatherlink.com 1.10,2013-06-05 10:52:00,
2013-06-05 06:07:00,70.2,67.0,29.79,South,184,4.0,9.0,88,0.00,,,0.00,weatherlink.com 1.10,2013-06-05 11:07:00,
2013-06-05 06:22:00,70.2,67.0,29.79,South,189,6.0,10.0,88,0.00,,,0.00,weatherlink.com 1.10,2013-06-05 11:22:00,
2013-06-05 06:37:00,70.2,67.0,29.79,SSW,201,4.0,11.0,89,0.00,,,0.00,weatherlink.com 1.10,2013-06-05 11:37:00,
2013-06-05 06:52:00,70.1,67.0,29.80,South,173,3.0,7.0,89,0.00,,,0.00,weatherlink.com 1.10,2013-06-05 11:52:00,
2013-06-05 07:07:00,70.3,67.0,29.80,SSW,194,5.0,7.0,89,0.00,,,0.00,weatherlink.com 1.10,2013-06-05 12:07:00,
2013-06-05 07:22:00,71.0,67.0,29.80,South,181,4.0,7.0,88,0.00,,,0.00,weatherlink.com 1.10,2013-06-05 12:22:00,
2013-06-05 07:37:00,72.0,68.0,29.80,SSW,202,4.0,11.0,87,0.00,,,0.00,weatherlink.com 1.10,2013-06-05 12:37:00,
2013-06-05 07:52:00,73.0,68.0,29.80,South,181,4.0,11.0,85,0.00,,,0.00,weatherlink.com 1.10,2013-06-05 12:52:00,
2013-06-05 08:07:00,73.9,69.0,29.80,SSE,164,7.0,14.0,83,0.00,,,0.00,weatherlink.com 1.10,2013-06-05 13:07:00,
2013-06-05 08:22:00,74.8,69.0,29.80,SSW,193,7.0,12.0,81,0.00,,,0.00,weatherlink.com 1.10,2013-06-05 13:22:00,
2013-06-05 08:37:00,75.4,69.0,29.80,South,189,8.0,14.0,80,0.00,,,0.00,weatherlink.com 1.10,2013-06-05 13:37:00,
2013-06-05 08:52:00,76.7,69.0,29.81,SSE,160,2.0,12.0,76,0.00,,,0.00,weatherlink.com 1.10,2013-06-05 13:52:00,
2013-06-05 09:07:00,77.6,68.0,29.81,SSW,210,8.0,15.0,73,0.00,,,0.00,weatherlink.com 1.10,2013-06-05 14:07:00,
2013-06-05 09:22:00,78.5,69.0,29.81,South,185,4.0,12.0,72,0.00,,,0.00,weatherlink.com 1.10,2013-06-05 14:22:00,
2013-06-05 09:37:00,79.3,69.0,29.81,South,170,8.0,11.0,70,0.00,,,0.00,weatherlink.com 1.10,2013-06-05 14:37:00,
2013-06-05 09:52:00,80.4,69.0,29.81,South,172,4.0,9.0,68,0.00,,,0.00,weatherlink.com 1.10,2013-06-05 14:52:00,
2013-06-05 10:07:00,80.5,69.0,29.81,South,181,8.0,10.0,68,0.00,,,0.00,weatherlink.com 1.10,2013-06-05 15:07:00,
2013-06-05 10:22:00,81.6,69.0,29.81,South,176,3.0,11.0,66,0.00,,,0.00,weatherlink.com 1.10,2013-06-05 15:22:00,
2013-06-05 10:37:00,81.8,67.0,29.81,SE,144,5.0,10.0,62,0.00,,,0.00,weatherlink.com 1.10,2013-06-05 15:37:00,
2013-06-05 10:52:00,82.7,69.0,29.81,SE,125,8.0,10.0,64,0.00,,,0.00,weatherlink.com 1.10,2013-06-05 15:52:00,
2013-06-05 11:07:00,83.9,69.0,29.81,SSE,158,5.0,13.0,61,0.00,,,0.00,weatherlink.com 1.10,2013-06-05 16:07:00,
2013-06-05 11:22:00,84.4,69.0,29.81,SSE,160,3.0,10.0,60,0.00,,,0.00,weatherlink.com 1.10,2013-06-05 16:22:00,
2013-06-05 11:38:00,84.9,69.0,29.82,South,183,6.0,12.0,60,0.00,,,0.00,weatherlink.com 1.10,2013-06-05 16:38:00,
2013-06-05 11:53:00,85.5,69.0,29.82,South,181,2.0,11.0,58,0.00,,,0.00,weatherlink.com 1.10,2013-06-05 16:53:00,
2013-06-05 12:08:00,85.7,69.0,29.83,East,88,7.0,9.0,57,0.00,,,0.00,weatherlink.com 1.10,2013-06-05 17:08:00,
2013-06-05 12:23:00,86.9,69.0,29.83,SE,131,7.0,14.0,55,0.00,,,0.00,weatherlink.com 1.10,2013-06-05 17:23:00,
2013-06-05 12:38:00,87.5,69.0,29.84,SE,128,6.0,10.0,55,0.00,,,0.00,weatherlink.com 1.10,2013-06-05 17:38:00,
2013-06-05 12:53:00,88.4,68.0,29.84,SE,129,3.0,8.0,51,0.00,,,0.00,weatherlink.com 1.10,2013-06-05 17:53:00,
2013-06-05 13:08:00,89.2,66.0,29.84,SE,130,5.0,9.0,47,0.00,,,0.00,weatherlink.com 1.10,2013-06-05 18:08:00,
2013-06-05 13:23:00,90.3,69.0,29.84,SE,130,4.0,10.0,49,0.00,,,0.00,weatherlink.com 1.10,2013-06-05 18:23:00,
2013-06-05 13:38:00,91.9,69.0,29.84,ENE,66,7.0,9.0,48,0.00,,,0.00,weatherlink.com 1.10,2013-06-05 18:38:00,
2013-06-05 13:53:00,92.0,66.0,29.82,SE,129,5.0,11.0,43,0.00,,,0.00,weatherlink.com 1.10,2013-06-05 18:53:00,
2013-06-05 14:08:00,90.4,68.0,29.81,ESE,117,5.0,8.0,48,0.00,,,0.00,weatherlink.com 1.10,2013-06-05 19:08:00,
2013-06-05 14:23:00,91.2,68.0,29.80,ESE,116,8.0,14.0,46,0.00,,,0.00,weatherlink.com 1.10,2013-06-05 19:23:00,
2013-06-05 14:38:00,90.2,68.0,29.79,SE,126,13.0,17.0,48,0.00,,,0.00,weatherlink.com 1.10,2013-06-05 19:38:00,
2013-06-05 14:53:00,92.4,68.0,29.78,ESE,120,9.0,18.0,45,0.00,,,0.00,weatherlink.com 1.10,2013-06-05 19:53:00,
2013-06-05 15:08:00,92.2,67.0,29.78,SE,146,9.0,14.0,44,0.00,,,0.00,weatherlink.com 1.10,2013-06-05 20:08:00,
2013-06-05 15:23:00,91.9,69.0,29.76,South,185,7.0,21.0,47,0.00,,,0.00,weatherlink.com 1.10,2013-06-05 20:23:00,
2013-06-05 15:38:00,90.8,66.0,29.76,East,100,11.0,23.0,44,0.00,,,0.00,weatherlink.com 1.10,2013-06-05 20:38:00,
2013-06-05 15:53:00,90.3,66.0,29.74,SE,124,14.0,19.0,45,0.00,,,0.00,weatherlink.com 1.10,2013-06-05 20:53:00,
2013-06-05 16:08:00,91.8,68.0,29.75,ESE,118,21.0,21.0,45,0.00,,,0.00,weatherlink.com 1.10,2013-06-05 21:08:00,
2013-06-05 16:23:00,91.9,67.0,29.74,SE,136,13.0,21.0,44,0.00,,,0.00,weatherlink.com 1.10,2013-06-05 21:23:00,
2013-06-05 16:38:00,92.0,66.0,29.74,SE,133,10.0,18.0,42,0.00,,,0.00,weatherlink.com 1.10,2013-06-05 21:38:00,
2013-06-05 16:53:00,92.2,66.0,29.74,SSE,166,7.0,17.0,42,0.00,,,0.00,weatherlink.com 1.10,2013-06-05 21:53:00,
2013-06-05 17:23:00,92.2,67.0,29.73,SSE,152,10.0,19.0,43,0.00,,,0.00,weatherlink.com 1.10,2013-06-05 22:23:00,
2013-06-05 17:38:00,92.0,66.0,29.72,SE,133,9.0,16.0,43,0.00,,,0.00,weatherlink.com 1.10,2013-06-05 22:38:00,
2013-06-05 17:53:00,92.1,67.0,29.71,SE,131,11.0,18.0,43,0.00,,,0.00,weatherlink.com 1.10,2013-06-05 22:53:00,
2013-06-05 18:08:00,92.2,66.0,29.71,South,169,3.0,16.0,42,0.00,,,0.00,weatherlink.com 1.10,2013-06-05 23:08:00,
2013-06-05 18:23:00,92.0,66.0,29.71,SSE,152,6.0,18.0,42,0.00,,,0.00,weatherlink.com 1.10,2013-06-05 23:23:00,
2013-06-05 18:39:00,91.7,66.0,29.70,South,172,3.0,14.0,43,0.00,,,0.00,weatherlink.com 1.10,2013-06-05 23:39:00,
2013-06-05 18:53:00,91.5,66.0,29.70,South,182,5.0,13.0,43,0.00,,,0.00,weatherlink.com 1.10,2013-06-05 23:53:00,
2013-06-05 19:08:00,90.9,65.0,29.70,South,176,4.0,13.0,42,0.00,,,0.00,weatherlink.com 1.10,2013-06-06 00:08:00,
2013-06-05 19:23:00,90.2,66.0,29.70,SSE,168,4.0,11.0,45,0.00,,,0.00,weatherlink.com 1.10,2013-06-06 00:23:00,
2013-06-05 19:38:00,89.6,67.0,29.70,South,182,7.0,11.0,47,0.00,,,0.00,weatherlink.com 1.10,2013-06-06 00:38:00,
2013-06-05 19:53:00,88.8,67.0,29.71,South,172,5.0,10.0,49,0.00,,,0.00,weatherlink.com 1.10,2013-06-06 00:53:00,
2013-06-05 20:08:00,87.5,67.0,29.71,South,178,4.0,11.0,51,0.00,,,0.00,weatherlink.com 1.10,2013-06-06 01:08:00,
2013-06-05 20:23:00,86.3,67.0,29.71,South,182,4.0,9.0,53,0.00,,,0.00,weatherlink.com 1.10,2013-06-06 01:23:00,
2013-06-05 20:38:00,85.3,67.0,29.71,South,175,3.0,7.0,55,0.00,,,0.00,weatherlink.com 1.10,2013-06-06 01:38:00,
2013-06-05 20:53:00,84.4,67.0,29.72,South,191,4.0,7.0,57,0.00,,,0.00,weatherlink.com 1.10,2013-06-06 01:53:00,
2013-06-05 21:08:00,83.7,67.0,29.73,South,182,0.0,6.0,58,0.00,,,0.00,weatherlink.com 1.10,2013-06-06 02:08:00,
2013-06-05 21:23:00,83.0,67.0,29.73,South,179,3.0,6.0,59,0.00,,,0.00,weatherlink.com 1.10,2013-06-06 02:23:00,
2013-06-05 21:38:00,82.5,67.0,29.74,South,176,4.0,6.0,60,0.00,,,0.00,weatherlink.com 1.10,2013-06-06 02:38:00,
2013-06-05 21:53:00,82.0,67.0,29.74,South,176,2.0,5.0,60,0.00,,,0.00,weatherlink.com 1.10,2013-06-06 02:53:00,
2013-06-05 22:08:00,81.3,66.0,29.74,South,172,2.0,5.0,61,0.00,,,0.00,weatherlink.com 1.10,2013-06-06 03:08:00,
2013-06-05 22:23:00,80.6,66.0,29.76,South,187,1.0,4.0,62,0.00,,,0.00,weatherlink.com 1.10,2013-06-06 03:23:00,
2013-06-05 22:38:00,79.4,66.0,29.77,SSW,192,2.0,5.0,64,0.00,,,0.00,weatherlink.com 1.10,2013-06-06 03:38:00,
2013-06-05 22:53:00,79.2,66.0,29.77,SSW,195,3.0,5.0,65,0.00,,,0.00,weatherlink.com 1.10,2013-06-06 03:53:00,
2013-06-05 23:08:00,79.5,66.0,29.78,SSW,195,3.0,4.0,64,0.00,,,0.00,weatherlink.com 1.10,2013-06-06 04:08:00,
2013-06-05 23:23:00,79.0,66.0,29.78,SSW,195,1.0,4.0,65,0.00,,,0.00,weatherlink.com 1.10,2013-06-06 04:23:00,
2013-06-05 23:38:00,77.7,66.0,29.78,SSW,195,2.0,2.0,68,0.00,,,0.00,weatherlink.com 1.10,2013-06-06 04:38:00,
2013-06-05 23:53:00,77.9,67.0,29.78,South,191,2.0,3.0,68,0.00,,,0.00,weatherlink.com 1.10,2013-06-06 04:53:00,